User: anonymous   Login
Location: Castelbiague
(43.0361°N, 0.9246°E)
Time: 20:50:43
(UTC+00:00)
Language:

deb Kosmos-1375 - Orbit

View from above orbital plane
View from above orbital plane
View from above satellite
View from above satellite

Ground track
Ground track

The orbit data is extracted from the following two-line orbital elements,

1 16382U 82055W   22024.35772354  .00001158  00000-0  52212-3 0  9996
2 16382  65.7463   7.9976 0032654 343.5852 164.1189 14.25803414860153
Epoch (UTC): 24 January 2022 08:35:07
Eccentricity: 0.0032654
inclination: 65.7463°
perigee height: 782 km
apogee height: 829 km
right ascension of ascending node: 7.9976°
argument of perigee: 343.5852°
revolutions per day: 14.25803414
mean anomaly at epoch: 164.1189°
orbit number at epoch: 86015

The dashed part of the orbit path shows where the satellite is in the earth's shadow,  

DLR